sat.trackr.live / text

‹ back to catalog

GONETS-M 4

NORAD 38736 · 2012-041D

PAYLOAD ACTIVE UNKNOWN

§ Identity

Operator
Country
CIS
Launch date
2012-07-28
Launch site
PLMSC
Launch vehicle
Mass (kg)
RCS (m²)
1.70

External: N2YO · Heavens-Above · Gunter

§ Orbital elements

Epoch: 2026-05-25T04:25:50.916576Z

Period
115.76 min
Inclination
82.4779°
Eccentricity
0.0026306
Mean motion
12.43903187 rev/d
Perigee alt
1,469.4 km
Apogee alt
1,510.8 km
Semi-major
7,868.2 km
B*
-7.9714e-5
RAAN
85.1825°
Arg perigee
101.7776°
Mean anomaly
258.6258°
Rev number
62,009

§ Raw data

GONETS-M 41 38736U 12041D   26145.18461709 -.00000001  00000+0 -79714-4 0  99932 38736  82.4779  85.1825 0026306 101.7776 258.6258 12.43903187620092

JSON: /api/v1/satellites/38736 · /tle

For live sub-satellite position, see the globe view (requires WebGL).

§ Visibility from observer

Set your observer location to see the next 7 days of passes ≥ 10°. The values pass through the URL so the page stays shareable.

No JS? Fill the form by hand. The geolocation button needs JavaScript.